Location: Caltech
(34.1382°N, 118.1253°W)
Time: 09:13:37
(UTC-07:00)

Oscar 10/S400 - Visible Passes

Search period start: 19 October 2017 00:00
Search period end: 29 October 2017 00:00
Orbit: 4000 x 35448 km, 27.1° (Epoch: 18 October)

Date Brightness Start Highest point End Pass type
(mag) Time Alt. Az. Time Alt. Az. Time Alt. Az.
19 Oct?22:38:53E22:38:53E22:08:50Svisible
26 Oct ? 06:15:00 11° W 07:56:04 74° SW 16:23:58 10° SSW visible
27 Oct ? 05:34:25 21° W 06:48:34 79° SSW 15:47:17 10° S visible
28 Oct ? 04:53:50 32° WSW 05:42:53 80° S 15:05:42 10° S visible
